Home > Weather > Wals-Siezenheim > Past weeks

Flag for Austria Past Weather in Wals-Siezenheim, Salzburg, Austria — Yesterday and Last 2 Weeks

Now
55 °F

Light rain. Broken clouds.


Feels Like: 55 °F
Forecast: 55 / 77 °F
Wind: 5 mph from Southeast

Location: Salzburg-Flughafen

Current Time: Jun 27, 2016 at 7:59:43 AM

Latest Report: Jun 27, 2016 at 7:20 AM


Visibility: N/A

Pressure: 30.18 "Hg

Humidity: 100%

Dew Point: 55 °F

Location of Wals-SiezenheimLocation

Past Weather in Wals-Siezenheim — Graph

°F

Wals-Siezenheim Temperature Yesterday

Maximum temperature yesterday: 66 °F (at 12:20 AM)
Minimum temperature yesterday: 57 °F (at 9:50 PM)
Average temperature yesterday: 62 °F

High & Low Weather Summary for the Past Weeks

 TemperatureHumidityPressure
High88 °F (Jun 23, 4:20 PM)100% (Jun 12, 6:20 AM)30.30 "Hg (Jun 12, 6:20 AM)
Low52 °F (Jun 17, 7:20 AM)33% (Jun 24, 7:20 PM)29.53 "Hg (Jun 16, 2:20 PM)
Average64 °F78%29.97 "Hg
* Reported Jun 12 6:20 AM — Jun 27 6:20 AM, Wals-Siezenheim, Weather by CustomWeather, © 2016

Note: Actual official high and low records may vary slightly from our data, if they occured in-between our weather recording intervals... More about our weather records

Advertising

Wals-Siezenheim Weather History for the Previous 24 Hours

Scroll right to see more
 ConditionsComfort  
Time TempWeatherWind HumidityBarometerVisibility
6:20 AM
Mon, Jun 27
55 °FRain. Broken clouds.2 mph100%30.18 "Hg5 mi
5:50 AM55 °FRain. Partly cloudy.3 mph94%30.18 "Hg6 mi
5:20 AM55 °FRain. Passing clouds.3 mph100%30.18 "Hg6 mi
4:50 AM55 °FRain. Partly cloudy.5 mph100%30.18 "HgN/A
4:20 AM55 °FRain showers. Passing clouds.1 mph94%30.15 "Hg6 mi
3:50 AM55 °FSprinkles. Passing clouds.2 mph94%30.15 "HgN/A
3:20 AM55 °FSprinkles. Passing clouds.2 mph94%30.15 "HgN/A
2:50 AM55 °FPassing clouds.6 mph100%30.12 "HgN/A
2:20 AM55 °FLight rain. Passing clouds.5 mph94%30.12 "HgN/A
1:50 AM55 °FLight rain. Partly cloudy.2 mph94%30.15 "HgN/A
1:20 AM57 °FRain showers. Passing clouds.5 mph94%30.12 "HgN/A
12:50 AM57 °FSprinkles. Passing clouds.3 mph94%30.15 "HgN/A
12:20 AM57 °FPassing clouds.6 mph94%30.12 "HgN/A
11:50 PM
Sun, Jun 26
57 °FLight rain. Passing clouds.5 mph88%30.12 "HgN/A
11:20 PM57 °FPassing clouds.1 mph94%30.12 "HgN/A
10:50 PM57 °FPartly cloudy.3 mph88%30.12 "HgN/A
10:20 PM57 °FPartly cloudy.2 mph88%30.12 "HgN/A
9:50 PM57 °FLight rain. Broken clouds.2 mph94%30.12 "HgN/A
9:20 PM59 °FRain showers. Broken clouds.6 mph88%30.12 "HgN/A
8:50 PM59 °FLight rain. Broken clouds.6 mph94%30.12 "HgN/A
8:20 PM59 °FLight rain. Broken clouds.2 mph94%30.09 "HgN/A
7:50 PM61 °FRain showers. Broken clouds.5 mph88%30.09 "HgN/A
7:20 PM61 °FLight rain. Partly sunny.6 mph88%30.09 "HgN/A
6:50 PM61 °FDrizzle. Broken clouds.5 mph88%30.09 "HgN/A
6:20 PM61 °FDrizzle. Broken clouds.6 mph88%30.09 "HgN/A
5:50 PM63 °FBroken clouds.7 mph88%30.07 "HgN/A
5:20 PM61 °FBroken clouds.7 mph94%30.09 "HgN/A
4:50 PM61 °FDrizzle. Broken clouds.6 mph94%30.07 "Hg6 mi
4:20 PM61 °FLight rain. Broken clouds.7 mph94%30.07 "Hg4 mi
3:50 PM63 °FDrizzle. Partly sunny.5 mph88%30.07 "HgN/A
3:20 PM64 °FScattered showers. Partly sunny.3 mph78%30.07 "HgN/A
2:50 PM64 °FScattered showers. Partly sunny.5 mph78%30.09 "HgN/A
2:20 PM64 °FPartly sunny.6 mph78%30.09 "HgN/A
1:50 PM64 °FPartly sunny.8 mph78%30.09 "HgN/A
1:20 PM64 °FPartly sunny.8 mph78%30.09 "HgN/A
12:50 PM64 °FBroken clouds.9 mph78%30.09 "HgN/A
12:20 PM64 °FBroken clouds.7 mph78%30.09 "HgN/A
11:50 AM66 °FBroken clouds.5 mph73%30.09 "HgN/A
11:20 AM64 °FPartly sunny.5 mph78%30.09 "HgN/A
10:50 AM63 °FPartly sunny.3 mph83%30.09 "HgN/A
10:20 AM63 °FPartly sunny.3 mph83%30.09 "HgN/A
9:50 AM63 °FPartly sunny.3 mph83%30.09 "HgN/A
9:20 AM63 °FPartly sunny.1 mph83%30.09 "HgN/A
8:50 AM61 °FPartly sunny.1 mph83%30.09 "HgN/A
8:20 AM59 °FBroken clouds.2 mph94%30.09 "HgN/A
7:50 AM59 °FBroken clouds.2 mph94%30.09 "HgN/A
7:20 AM59 °FLight rain. Broken clouds.2 mph94%30.09 "Hg4 mi
Weather by CustomWeather, © 2016

See weather overviewHow to use our weather pages